Time,TemperatureF,DewpointF,PressureIn,WindDirection,WindDirectionDegrees,WindSpeedMPH,WindSpeedGustMPH,Humidity,HourlyPrecipIn,Conditions,Clouds,dailyrainin,SoftwareType,DateUTC
2013-03-23 00:03:00,24.0,22.0,29.63,WSW,247,9.0,9.0,95,0.00,,,0.00,TxWx,2013-03-23 04:03:00,
2013-03-23 00:08:00,25.0,23.0,29.64,SW,225,6.0,10.0,95,0.00,,,0.00,TxWx,2013-03-23 04:08:00,
2013-03-23 00:11:00,27.0,18.0,29.62,West,270,5.0,8.0,72,0.00,,,0.00,TxWx,2013-03-23 04:11:00,
2013-03-23 00:12:00,27.0,18.0,29.62,West,270,13.0,16.0,72,0.00,,,0.00,TxWx,2013-03-23 04:12:00,
2013-03-23 00:13:00,24.0,22.0,29.63,WSW,247,8.0,10.0,95,0.00,,,0.00,TxWx,2013-03-23 04:13:00,
2013-03-23 00:14:00,27.0,18.0,29.62,WSW,247,15.0,15.0,71,0.00,,,0.00,TxWx,2013-03-23 04:14:00,
2013-03-23 00:15:00,27.0,18.0,29.62,SW,225,7.0,15.0,70,0.00,,,0.00,TxWx,2013-03-23 04:15:00,
2013-03-23 00:18:00,24.0,23.0,29.63,West,270,13.0,14.0,95,0.00,,,0.00,TxWx,2013-03-23 04:18:00,
2013-03-23 00:23:00,24.0,22.0,29.63,SW,225,7.0,7.0,95,0.00,,,0.00,TxWx,2013-03-23 04:23:00,
2013-03-23 00:29:00,24.0,22.0,29.63,WSW,247,8.0,10.0,95,0.00,,,0.00,TxWx,2013-03-23 04:29:00,
2013-03-23 00:32:00,25.0,23.0,29.63,WSW,247,8.0,10.0,95,0.00,,,0.00,TxWx,2013-03-23 04:32:00,
2013-03-23 00:37:00,24.0,22.0,29.63,West,270,6.0,11.0,95,0.00,,,0.00,TxWx,2013-03-23 04:37:00,
2013-03-23 00:41:00,27.0,17.0,29.62,West,270,8.0,10.0,70,0.00,,,0.00,TxWx,2013-03-23 04:41:00,
2013-03-23 00:42:00,27.0,17.0,29.62,West,270,10.0,14.0,69,0.00,,,0.00,TxWx,2013-03-23 04:42:00,
2013-03-23 00:43:00,28.0,18.0,29.62,West,270,11.0,11.0,69,0.00,,,0.00,TxWx,2013-03-23 04:43:00,
2013-03-23 00:44:00,24.0,22.0,29.63,West,270,11.0,12.0,95,0.00,,,0.00,TxWx,2013-03-23 04:44:00,
2013-03-23 00:50:00,24.0,22.0,29.63,WSW,247,10.0,10.0,95,0.00,,,0.00,TxWx,2013-03-23 04:50:00,
2013-03-23 00:51:00,27.0,17.0,29.62,WNW,292,10.0,11.0,68,0.00,,,0.00,TxWx,2013-03-23 04:51:00,
2013-03-23 00:52:00,27.0,17.0,29.62,West,270,10.0,14.0,68,0.00,,,0.00,TxWx,2013-03-23 04:52:00,
2013-03-23 00:53:00,27.0,17.0,29.62,West,270,8.0,13.0,68,0.00,,,0.00,TxWx,2013-03-23 04:53:00,
2013-03-23 00:54:00,27.0,17.0,29.62,West,270,10.0,10.0,68,0.00,,,0.00,TxWx,2013-03-23 04:54:00,
2013-03-23 00:55:00,24.0,22.0,29.63,WNW,292,7.0,11.0,95,0.00,,,0.00,TxWx,2013-03-23 04:55:00,
2013-03-23 01:00:00,24.0,22.0,29.63,WSW,247,6.0,6.0,95,0.00,,,0.00,TxWx,2013-03-23 05:00:00,
2013-03-23 01:05:00,25.0,23.0,29.63,WSW,247,12.0,14.0,95,0.00,,,0.00,TxWx,2013-03-23 05:05:00,
2013-03-23 01:10:00,25.0,23.0,29.63,WSW,247,7.0,9.0,95,0.00,,,0.00,TxWx,2013-03-23 05:10:00,
2013-03-23 01:15:00,25.0,23.0,29.63,West,270,7.0,7.0,95,0.00,,,0.00,TxWx,2013-03-23 05:15:00,
2013-03-23 01:20:00,25.0,23.0,29.63,West,270,6.0,12.0,95,0.00,,,0.00,TxWx,2013-03-23 05:20:00,
2013-03-23 01:21:00,28.0,17.0,29.62,West,270,8.0,15.0,66,0.00,,,0.00,TxWx,2013-03-23 05:21:00,
2013-03-23 01:22:00,29.0,18.0,29.62,West,270,11.0,11.0,66,0.00,,,0.00,TxWx,2013-03-23 05:22:00,
2013-03-23 01:23:00,28.0,17.0,29.62,West,270,8.0,13.0,65,0.00,,,0.00,TxWx,2013-03-23 05:23:00,
2013-03-23 01:24:00,28.0,17.0,29.62,SW,225,14.0,14.0,65,0.00,,,0.00,TxWx,2013-03-23 05:24:00,
2013-03-23 01:25:00,25.0,23.0,29.63,WSW,247,13.0,14.0,95,0.00,,,0.00,TxWx,2013-03-23 05:25:00,
2013-03-23 01:26:00,29.0,18.0,29.62,SW,225,19.0,19.0,65,0.00,,,0.00,TxWx,2013-03-23 05:26:00,
2013-03-23 01:27:00,29.0,18.0,29.62,SW,225,16.0,18.0,65,0.00,,,0.00,TxWx,2013-03-23 05:27:00,
2013-03-23 01:28:00,29.0,17.0,29.62,SSW,202,11.0,14.0,64,0.00,,,0.00,TxWx,2013-03-23 05:28:00,
2013-03-23 01:29:00,29.0,18.0,29.62,WSW,247,7.0,10.0,65,0.00,,,0.00,TxWx,2013-03-23 05:29:00,
2013-03-23 01:30:00,25.0,23.0,29.63,West,270,10.0,10.0,94,0.00,,,0.00,TxWx,2013-03-23 05:30:00,
2013-03-23 01:35:00,25.0,23.0,29.62,SW,225,9.0,12.0,94,0.00,,,0.00,TxWx,2013-03-23 05:35:00,
2013-03-23 01:40:00,25.0,22.0,29.62,West,270,11.0,13.0,94,0.00,,,0.00,TxWx,2013-03-23 05:40:00,
2013-03-23 01:45:00,25.0,22.0,29.62,SW,225,13.0,13.0,94,0.00,,,0.00,TxWx,2013-03-23 05:45:00,
2013-03-23 01:50:00,26.0,23.0,29.62,SW,225,7.0,11.0,93,0.00,,,0.00,TxWx,2013-03-23 05:50:00,
2013-03-23 01:56:00,25.0,22.0,29.62,WSW,247,6.0,7.0,93,0.00,,,0.00,TxWx,2013-03-23 05:56:00,
2013-03-23 02:01:00,25.0,22.0,29.62,WSW,247,7.0,8.0,92,0.00,,,0.00,TxWx,2013-03-23 06:01:00,
2013-03-23 02:06:00,26.0,23.0,29.62,West,270,7.0,8.0,92,0.00,,,0.00,TxWx,2013-03-23 06:06:00,
2013-03-23 02:11:00,26.0,23.0,29.62,SW,225,6.0,10.0,92,0.00,,,0.00,TxWx,2013-03-23 06:11:00,
2013-03-23 02:16:00,26.0,23.0,29.61,West,270,10.0,11.0,92,0.00,,,0.00,TxWx,2013-03-23 06:16:00,
2013-03-23 02:21:00,26.0,23.0,29.61,SW,225,7.0,10.0,91,0.00,,,0.00,TxWx,2013-03-23 06:21:00,
2013-03-23 02:27:00,26.0,23.0,29.61,WSW,247,8.0,8.0,91,0.00,,,0.00,TxWx,2013-03-23 06:27:00,
2013-03-23 02:31:00,30.0,18.0,29.62,SW,225,8.0,15.0,63,0.00,,,0.00,TxWx,2013-03-23 06:31:00,
2013-03-23 02:32:00,25.0,22.0,29.61,West,270,8.0,10.0,91,0.00,,,0.00,TxWx,2013-03-23 06:32:00,
2013-03-23 02:33:00,31.0,19.0,29.62,SSW,202,19.0,19.0,63,0.00,,,0.00,TxWx,2013-03-23 06:33:00,
2013-03-23 02:34:00,30.0,18.0,29.62,SW,225,24.0,24.0,63,0.00,,,0.00,TxWx,2013-03-23 06:34:00,
2013-03-23 02:35:00,30.0,18.0,29.62,SW,225,20.0,20.0,63,0.00,,,0.00,TxWx,2013-03-23 06:35:00,
2013-03-23 02:37:00,25.0,22.0,29.61,WSW,247,9.0,11.0,91,0.00,,,0.00,TxWx,2013-03-23 06:37:00,
2013-03-23 02:42:00,26.0,23.0,29.61,West,270,6.0,8.0,92,0.00,,,0.00,TxWx,2013-03-23 06:42:00,
2013-03-23 02:47:00,26.0,23.0,29.61,SW,225,7.0,8.0,92,0.00,,,0.00,TxWx,2013-03-23 06:47:00,
2013-03-23 02:52:00,25.0,22.0,29.60,West,270,11.0,13.0,92,0.00,,,0.00,TxWx,2013-03-23 06:52:00,
2013-03-23 02:57:00,26.0,23.0,29.60,SW,225,13.0,14.0,92,0.00,,,0.00,TxWx,2013-03-23 06:57:00,
2013-03-23 03:02:00,26.0,23.0,29.60,SW,225,8.0,12.0,92,0.00,,,0.00,TxWx,2013-03-23 07:02:00,
2013-03-23 03:07:00,26.0,23.0,29.60,WSW,247,10.0,12.0,92,0.00,,,0.00,TxWx,2013-03-23 07:07:00,
2013-03-23 03:12:00,25.0,22.0,29.60,West,270,12.0,15.0,92,0.00,,,0.00,TxWx,2013-03-23 07:12:00,
2013-03-23 03:17:00,26.0,23.0,29.60,West,270,10.0,12.0,92,0.00,,,0.00,TxWx,2013-03-23 07:17:00,
2013-03-23 03:22:00,26.0,23.0,29.60,WNW,292,8.0,8.0,92,0.00,,,0.00,TxWx,2013-03-23 07:22:00,
2013-03-23 03:28:00,25.0,22.0,29.60,WSW,247,11.0,14.0,92,0.00,,,0.00,TxWx,2013-03-23 07:28:00,
2013-03-23 03:33:00,25.0,22.0,29.60,WSW,247,13.0,19.0,92,0.00,,,0.00,TxWx,2013-03-23 07:33:00,
2013-03-23 03:38:00,25.0,22.0,29.60,WSW,247,10.0,16.0,92,0.00,,,0.00,TxWx,2013-03-23 07:38:00,
2013-03-23 03:41:00,30.0,18.0,29.63,WSW,247,19.0,19.0,64,0.00,,,0.00,TxWx,2013-03-23 07:41:00,
2013-03-23 03:42:00,30.0,18.0,29.63,SW,225,18.0,19.0,64,0.00,,,0.00,TxWx,2013-03-23 07:42:00,
2013-03-23 03:45:00,26.0,23.0,29.60,WNW,292,7.0,11.0,92,0.00,,,0.00,TxWx,2013-03-23 07:45:00,
2013-03-23 03:50:00,25.0,22.0,29.60,WSW,247,14.0,14.0,92,0.00,,,0.00,TxWx,2013-03-23 07:50:00,
2013-03-23 03:55:00,25.0,22.0,29.59,SW,225,11.0,13.0,92,0.00,,,0.00,TxWx,2013-03-23 07:55:00,
2013-03-23 04:00:00,25.0,22.0,29.59,WSW,247,11.0,18.0,92,0.00,,,0.00,TxWx,2013-03-23 08:00:00,
2013-03-23 04:01:00,31.0,19.0,29.63,SW,225,11.0,19.0,63,0.00,,,0.00,TxWx,2013-03-23 08:01:00,
2013-03-23 04:02:00,30.0,18.0,29.63,SSW,202,8.0,15.0,62,0.00,,,0.00,TxWx,2013-03-23 08:02:00,
2013-03-23 04:03:00,30.0,18.0,29.63,SW,225,14.0,14.0,63,0.00,,,0.00,TxWx,2013-03-23 08:03:00,
2013-03-23 04:04:00,30.0,18.0,29.63,SW,225,19.0,20.0,62,0.00,,,0.00,TxWx,2013-03-23 08:04:00,
2013-03-23 04:05:00,25.0,22.0,29.60,WSW,247,10.0,11.0,91,0.00,,,0.00,TxWx,2013-03-23 08:05:00,
2013-03-23 04:06:00,31.0,19.0,29.63,WSW,247,6.0,10.0,63,0.00,,,0.00,TxWx,2013-03-23 08:06:00,
2013-03-23 04:10:00,25.0,22.0,29.60,WNW,292,10.0,15.0,91,0.00,,,0.00,TxWx,2013-03-23 08:10:00,
2013-03-23 04:11:00,30.0,18.0,29.63,SW,225,24.0,25.0,64,0.00,,,0.00,TxWx,2013-03-23 08:11:00,
2013-03-23 04:15:00,25.0,22.0,29.60,WSW,247,9.0,9.0,91,0.00,,,0.00,TxWx,2013-03-23 08:15:00,
2013-03-23 04:20:00,25.0,22.0,29.60,SW,225,10.0,11.0,91,0.00,,,0.00,TxWx,2013-03-23 08:20:00,
2013-03-23 04:26:00,25.0,22.0,29.60,WSW,247,11.0,11.0,91,0.00,,,0.00,TxWx,2013-03-23 08:26:00,
2013-03-23 04:31:00,25.0,22.0,29.60,SW,225,6.0,10.0,91,0.00,,,0.00,TxWx,2013-03-23 08:31:00,
2013-03-23 04:32:00,30.0,18.0,29.63,West,270,15.0,19.0,64,0.00,,,0.00,TxWx,2013-03-23 08:32:00,
2013-03-23 04:33:00,31.0,19.0,29.63,SSW,202,13.0,24.0,64,0.00,,,0.00,TxWx,2013-03-23 08:33:00,
2013-03-23 04:34:00,30.0,18.0,29.63,SW,225,13.0,19.0,64,0.00,,,0.00,TxWx,2013-03-23 08:34:00,
2013-03-23 04:35:00,30.0,18.0,29.63,SW,225,19.0,24.0,64,0.00,,,0.00,TxWx,2013-03-23 08:35:00,
2013-03-23 04:36:00,25.0,22.0,29.60,SSW,202,15.0,17.0,91,0.00,,,0.00,TxWx,2013-03-23 08:36:00,
2013-03-23 04:41:00,25.0,22.0,29.61,West,270,10.0,11.0,91,0.00,,,0.00,TxWx,2013-03-23 08:41:00,
2013-03-23 04:42:00,30.0,18.0,29.62,WSW,247,16.0,16.0,64,0.00,,,0.00,TxWx,2013-03-23 08:42:00,
2013-03-23 04:43:00,31.0,19.0,29.62,SW,225,15.0,18.0,64,0.00,,,0.00,TxWx,2013-03-23 08:43:00,
2013-03-23 04:46:00,25.0,22.0,29.61,WSW,247,13.0,17.0,91,0.00,,,0.00,TxWx,2013-03-23 08:46:00,
2013-03-23 04:51:00,26.0,23.0,29.60,West,270,11.0,11.0,91,0.00,,,0.00,TxWx,2013-03-23 08:51:00,
2013-03-23 04:56:00,25.0,22.0,29.61,WSW,247,14.0,14.0,91,0.00,,,0.00,TxWx,2013-03-23 08:56:00,
2013-03-23 05:01:00,25.0,22.0,29.60,WNW,292,10.0,10.0,91,0.00,,,0.00,TxWx,2013-03-23 09:01:00,
2013-03-23 05:06:00,25.0,22.0,29.60,SW,225,11.0,13.0,91,0.00,,,0.00,TxWx,2013-03-23 09:06:00,
2013-03-23 05:15:00,25.0,21.0,29.60,SW,225,18.0,18.0,92,0.00,,,0.00,TxWx,2013-03-23 09:15:00,
2013-03-23 05:20:00,25.0,22.0,29.60,SW,225,14.0,16.0,92,0.00,,,0.00,TxWx,2013-03-23 09:20:00,
2013-03-23 05:25:00,25.0,22.0,29.60,SW,225,8.0,11.0,92,0.00,,,0.00,TxWx,2013-03-23 09:25:00,
2013-03-23 05:30:00,25.0,22.0,29.60,WSW,247,14.0,18.0,92,0.00,,,0.00,TxWx,2013-03-23 09:30:00,
2013-03-23 05:35:00,25.0,22.0,29.60,SW,225,5.0,8.0,92,0.00,,,0.00,TxWx,2013-03-23 09:35:00,
2013-03-23 05:40:00,25.0,22.0,29.60,WSW,247,7.0,10.0,92,0.00,,,0.00,TxWx,2013-03-23 09:40:00,
2013-03-23 05:45:00,25.0,22.0,29.60,WSW,247,12.0,12.0,92,0.00,,,0.00,TxWx,2013-03-23 09:45:00,
2013-03-23 05:50:00,25.0,22.0,29.60,West,270,6.0,11.0,92,0.00,,,0.00,TxWx,2013-03-23 09:50:00,
2013-03-23 05:55:00,25.0,22.0,29.60,SW,225,8.0,11.0,92,0.00,,,0.00,TxWx,2013-03-23 09:55:00,
2013-03-23 06:00:00,25.0,22.0,29.60,NW,315,8.0,12.0,92,0.00,,,0.00,TxWx,2013-03-23 10:00:00,
2013-03-23 06:05:00,25.0,22.0,29.60,West,270,13.0,13.0,93,0.00,,,0.00,TxWx,2013-03-23 10:05:00,
2013-03-23 06:11:00,25.0,22.0,29.60,SW,225,7.0,11.0,93,0.00,,,0.00,TxWx,2013-03-23 10:11:00,
2013-03-23 06:16:00,25.0,22.0,29.60,SW,225,7.0,11.0,93,0.00,,,0.00,TxWx,2013-03-23 10:16:00,
2013-03-23 06:21:00,25.0,22.0,29.60,WSW,247,10.0,10.0,92,0.00,,,0.00,TxWx,2013-03-23 10:21:00,
2013-03-23 06:26:00,25.0,22.0,29.60,WSW,247,14.0,15.0,91,0.00,,,0.00,TxWx,2013-03-23 10:26:00,
2013-03-23 06:31:00,26.0,21.0,29.60,SSE,157,14.0,20.0,90,0.00,,,0.00,TxWx,2013-03-23 10:31:00,
2013-03-23 06:36:00,25.0,21.0,29.61,West,270,11.0,11.0,89,0.00,,,0.00,TxWx,2013-03-23 10:36:00,
2013-03-23 06:37:00,32.0,19.0,29.63,SW,225,13.0,16.0,60,0.00,,,0.00,TxWx,2013-03-23 10:37:00,
2013-03-23 06:38:00,31.0,18.0,29.63,West,270,22.0,24.0,60,0.00,,,0.00,TxWx,2013-03-23 10:38:00,
2013-03-23 06:39:00,31.0,18.0,29.63,WSW,247,14.0,22.0,60,0.00,,,0.00,TxWx,2013-03-23 10:39:00,
2013-03-23 06:40:00,31.0,18.0,29.63,West,270,17.0,19.0,60,0.00,,,0.00,TxWx,2013-03-23 10:40:00,
2013-03-23 06:41:00,26.0,22.0,29.61,WSW,247,8.0,8.0,88,0.00,,,0.00,TxWx,2013-03-23 10:41:00,
2013-03-23 06:46:00,25.0,21.0,29.61,West,270,8.0,9.0,87,0.00,,,0.00,TxWx,2013-03-23 10:46:00,
2013-03-23 06:47:00,32.0,18.0,29.63,SW,225,20.0,20.0,59,0.00,,,0.00,TxWx,2013-03-23 10:47:00,
2013-03-23 06:51:00,25.0,20.0,29.61,SW,225,13.0,13.0,86,0.00,,,0.00,TxWx,2013-03-23 10:51:00,
2013-03-23 06:56:00,25.0,21.0,29.61,WSW,247,8.0,9.0,84,0.00,,,0.00,TxWx,2013-03-23 10:56:00,
2013-03-23 07:02:00,25.0,20.0,29.61,SW,225,15.0,16.0,83,0.00,,,0.00,TxWx,2013-03-23 11:02:00,
2013-03-23 07:07:00,25.0,19.0,29.61,West,270,10.0,13.0,82,0.00,,,0.00,TxWx,2013-03-23 11:07:00,
2013-03-23 07:12:00,25.0,19.0,29.61,West,270,10.0,13.0,82,0.00,,,0.00,TxWx,2013-03-23 11:12:00,
2013-03-23 07:17:00,25.0,19.0,29.61,WSW,247,13.0,14.0,82,0.00,,,0.00,TxWx,2013-03-23 11:17:00,
2013-03-23 07:22:00,24.0,18.0,29.61,West,270,10.0,12.0,82,0.00,,,0.00,TxWx,2013-03-23 11:22:00,
2013-03-23 07:26:00,31.0,17.0,29.64,SW,225,12.0,18.0,58,0.00,,,0.00,TxWx,2013-03-23 11:26:00,
2013-03-23 07:27:00,25.0,19.0,29.61,WSW,247,12.0,16.0,81,0.00,,,0.00,TxWx,2013-03-23 11:27:00,
2013-03-23 07:28:00,31.0,17.0,29.64,SW,225,10.0,14.0,58,0.00,,,0.00,TxWx,2013-03-23 11:28:00,
2013-03-23 07:30:00,31.0,17.0,29.64,WNW,292,14.0,16.0,58,0.00,,,0.00,TxWx,2013-03-23 11:30:00,
2013-03-23 07:35:00,25.0,19.0,29.60,SW,225,13.0,17.0,80,0.00,,,0.00,TxWx,2013-03-23 11:35:00,
2013-03-23 07:40:00,25.0,19.0,29.60,SW,225,13.0,13.0,80,0.00,,,0.00,TxWx,2013-03-23 11:40:00,
2013-03-23 07:41:00,32.0,17.0,29.65,South,180,24.0,24.0,57,0.00,,,0.00,TxWx,2013-03-23 11:41:00,
2013-03-23 07:42:00,32.0,17.0,29.65,West,270,10.0,18.0,57,0.00,,,0.00,TxWx,2013-03-23 11:42:00,
2013-03-23 07:43:00,31.0,16.0,29.65,SW,225,18.0,19.0,57,0.00,,,0.00,TxWx,2013-03-23 11:43:00,
2013-03-23 07:44:00,31.0,16.0,29.65,WNW,292,12.0,12.0,57,0.00,,,0.00,TxWx,2013-03-23 11:44:00,
2013-03-23 07:45:00,25.0,19.0,29.60,West,270,6.0,8.0,80,0.00,,,0.00,TxWx,2013-03-23 11:45:00,
2013-03-23 07:46:00,33.0,18.0,29.65,WSW,247,6.0,10.0,57,0.00,,,0.00,TxWx,2013-03-23 11:46:00,
2013-03-23 07:47:00,32.0,18.0,29.65,West,270,10.0,10.0,58,0.00,,,0.00,TxWx,2013-03-23 11:47:00,
2013-03-23 07:48:00,32.0,17.0,29.66,WSW,247,11.0,12.0,57,0.00,,,0.00,TxWx,2013-03-23 11:48:00,
2013-03-23 07:50:00,25.0,18.0,29.60,SW,225,8.0,11.0,79,0.00,,,0.00,TxWx,2013-03-23 11:50:00,
2013-03-23 07:51:00,32.0,17.0,29.66,West,270,11.0,11.0,57,0.00,,,0.00,TxWx,2013-03-23 11:51:00,
2013-03-23 07:52:00,32.0,17.0,29.66,WSW,247,7.0,7.0,57,0.00,,,0.00,TxWx,2013-03-23 11:52:00,
2013-03-23 07:53:00,32.0,17.0,29.65,West,270,6.0,11.0,57,0.00,,,0.00,TxWx,2013-03-23 11:53:00,
2013-03-23 07:54:00,32.0,18.0,29.66,SW,225,11.0,14.0,58,0.00,,,0.00,TxWx,2013-03-23 11:54:00,
2013-03-23 07:55:00,25.0,18.0,29.61,WSW,247,14.0,14.0,79,0.00,,,0.00,TxWx,2013-03-23 11:55:00,
2013-03-23 08:01:00,25.0,18.0,29.61,SW,225,8.0,11.0,79,0.00,,,0.00,TxWx,2013-03-23 12:01:00,
2013-03-23 08:06:00,25.0,18.0,29.61,SW,225,5.0,7.0,79,0.00,,,0.00,TxWx,2013-03-23 12:06:00,
2013-03-23 08:07:00,31.0,16.0,29.66,West,270,14.0,18.0,55,0.00,,,0.00,TxWx,2013-03-23 12:07:00,
2013-03-23 08:08:00,31.0,16.0,29.66,West,270,11.0,12.0,55,0.00,,,0.00,TxWx,2013-03-23 12:08:00,
2013-03-23 08:09:00,31.0,16.0,29.66,West,270,10.0,14.0,55,0.00,,,0.00,TxWx,2013-03-23 12:09:00,
2013-03-23 08:10:00,31.0,16.0,29.66,WSW,247,8.0,14.0,55,0.00,,,0.00,TxWx,2013-03-23 12:10:00,
2013-03-23 08:11:00,25.0,18.0,29.62,West,270,9.0,10.0,79,0.00,,,0.00,TxWx,2013-03-23 12:11:00,
2013-03-23 08:16:00,25.0,18.0,29.61,WSW,247,8.0,11.0,79,0.00,,,0.00,TxWx,2013-03-23 12:16:00,
2013-03-23 08:21:00,25.0,18.0,29.62,West,270,7.0,7.0,79,0.00,,,0.00,TxWx,2013-03-23 12:21:00,
2013-03-23 08:26:00,25.0,18.0,29.62,West,270,6.0,6.0,79,0.00,,,0.00,TxWx,2013-03-23 12:26:00,
2013-03-23 08:31:00,25.0,18.0,29.62,West,270,7.0,9.0,79,0.00,,,0.00,TxWx,2013-03-23 12:31:00,
2013-03-23 08:36:00,25.0,18.0,29.62,SW,225,13.0,13.0,79,0.00,,,0.00,TxWx,2013-03-23 12:36:00,
2013-03-23 08:45:00,25.0,18.0,29.63,WSW,247,7.0,10.0,78,0.00,,,0.00,TxWx,2013-03-23 12:45:00,
2013-03-23 08:46:00,31.0,16.0,29.67,WNW,292,19.0,24.0,55,0.00,,,0.00,TxWx,2013-03-23 12:46:00,
2013-03-23 08:47:00,30.0,15.0,29.67,WNW,292,21.0,21.0,55,0.00,,,0.00,TxWx,2013-03-23 12:47:00,
2013-03-23 08:48:00,31.0,16.0,29.67,West,270,9.0,16.0,55,0.00,,,0.00,TxWx,2013-03-23 12:48:00,
2013-03-23 08:49:00,30.0,15.0,29.68,WSW,247,13.0,20.0,55,0.00,,,0.00,TxWx,2013-03-23 12:49:00,
2013-03-23 08:50:00,25.0,18.0,29.63,West,270,10.0,14.0,78,0.00,,,0.00,TxWx,2013-03-23 12:50:00,
2013-03-23 08:55:00,26.0,19.0,29.63,West,270,8.0,8.0,78,0.00,,,0.00,TxWx,2013-03-23 12:55:00,
2013-03-23 09:00:00,25.0,18.0,29.62,West,270,13.0,16.0,78,0.00,,,0.00,TxWx,2013-03-23 13:00:00,
2013-03-23 09:05:00,25.0,18.0,29.62,SW,225,7.0,11.0,77,0.00,,,0.00,TxWx,2013-03-23 13:05:00,
2013-03-23 09:11:00,26.0,19.0,29.63,WSW,247,6.0,10.0,77,0.00,,,0.00,TxWx,2013-03-23 13:11:00,
2013-03-23 09:16:00,26.0,19.0,29.62,West,270,10.0,14.0,77,0.00,,,0.00,TxWx,2013-03-23 13:16:00,
2013-03-23 09:21:00,25.0,18.0,29.62,WNW,292,5.0,8.0,77,0.00,,,0.00,TxWx,2013-03-23 13:21:00,
2013-03-23 09:26:00,25.0,18.0,29.62,SW,225,6.0,8.0,77,0.00,,,0.00,TxWx,2013-03-23 13:26:00,
2013-03-23 09:31:00,26.0,18.0,29.62,West,270,12.0,14.0,76,0.00,,,0.00,TxWx,2013-03-23 13:31:00,
2013-03-23 09:32:00,30.0,17.0,29.69,SW,225,14.0,14.0,60,0.00,,,0.00,TxWx,2013-03-23 13:32:00,
2013-03-23 09:33:00,29.0,16.0,29.69,West,270,17.0,18.0,60,0.00,,,0.00,TxWx,2013-03-23 13:33:00,
2013-03-23 09:34:00,30.0,17.0,29.69,NW,315,13.0,18.0,60,0.00,,,0.00,TxWx,2013-03-23 13:34:00,
2013-03-23 09:35:00,30.0,17.0,29.69,WSW,247,12.0,14.0,60,0.00,,,0.00,TxWx,2013-03-23 13:35:00,
2013-03-23 09:36:00,25.0,17.0,29.62,West,270,11.0,13.0,75,0.00,,,0.00,TxWx,2013-03-23 13:36:00,
2013-03-23 09:41:00,26.0,18.0,29.62,WSW,247,13.0,14.0,75,0.00,,,0.00,TxWx,2013-03-23 13:41:00,
2013-03-23 09:46:00,26.0,18.0,29.62,West,270,11.0,15.0,74,0.00,,,0.00,TxWx,2013-03-23 13:46:00,
2013-03-23 09:47:00,29.0,16.0,29.69,West,270,11.0,15.0,61,0.00,,,0.00,TxWx,2013-03-23 13:47:00,
2013-03-23 09:48:00,30.0,17.0,29.69,West,270,11.0,11.0,61,0.00,,,0.00,TxWx,2013-03-23 13:48:00,
2013-03-23 09:49:00,30.0,17.0,29.69,SW,225,12.0,14.0,61,0.00,,,0.00,TxWx,2013-03-23 13:49:00,
2013-03-23 09:50:00,30.0,17.0,29.69,West,270,11.0,13.0,61,0.00,,,0.00,TxWx,2013-03-23 13:50:00,
2013-03-23 09:51:00,26.0,18.0,29.62,WSW,247,12.0,13.0,75,0.00,,,0.00,TxWx,2013-03-23 13:51:00,
2013-03-23 09:56:00,27.0,19.0,29.62,West,270,8.0,11.0,74,0.00,,,0.00,TxWx,2013-03-23 13:56:00,
2013-03-23 09:57:00,29.0,16.0,29.69,West,270,17.0,18.0,60,0.00,,,0.00,TxWx,2013-03-23 13:57:00,
2013-03-23 09:58:00,29.0,16.0,29.69,West,270,11.0,15.0,60,0.00,,,0.00,TxWx,2013-03-23 13:58:00,
2013-03-23 09:59:00,30.0,17.0,29.69,WNW,292,11.0,12.0,60,0.00,,,0.00,TxWx,2013-03-23 13:59:00,
2013-03-23 10:00:00,29.0,16.0,29.69,NW,315,9.0,14.0,60,0.00,,,0.00,TxWx,2013-03-23 14:00:00,
2013-03-23 10:01:00,26.0,18.0,29.62,WSW,247,6.0,7.0,73,0.00,,,0.00,TxWx,2013-03-23 14:01:00,
2013-03-23 10:06:00,27.0,18.0,29.62,West,270,10.0,11.0,73,0.00,,,0.00,TxWx,2013-03-23 14:06:00,
2013-03-23 10:15:00,27.0,18.0,29.62,West,270,12.0,12.0,70,0.00,,,0.00,TxWx,2013-03-23 14:15:00,
2013-03-23 10:20:00,26.0,17.0,29.62,SW,225,23.0,23.0,70,0.00,,,0.00,TxWx,2013-03-23 14:20:00,
2013-03-23 10:25:00,27.0,17.0,29.62,WSW,247,10.0,11.0,70,0.00,,,0.00,TxWx,2013-03-23 14:25:00,
2013-03-23 10:30:00,27.0,17.0,29.62,WNW,292,9.0,10.0,70,0.00,,,0.00,TxWx,2013-03-23 14:30:00,
2013-03-23 10:35:00,27.0,17.0,29.62,West,270,9.0,11.0,69,0.00,,,0.00,TxWx,2013-03-23 14:35:00,
2013-03-23 10:40:00,27.0,17.0,29.62,West,270,6.0,8.0,70,0.00,,,0.00,TxWx,2013-03-23 14:40:00,
2013-03-23 10:46:00,27.0,17.0,29.62,West,270,14.0,16.0,68,0.00,,,0.00,TxWx,2013-03-23 14:46:00,
2013-03-23 10:51:00,27.0,17.0,29.62,WSW,247,9.0,9.0,68,0.00,,,0.00,TxWx,2013-03-23 14:51:00,
2013-03-23 10:56:00,27.0,17.0,29.62,WNW,292,13.0,14.0,69,0.00,,,0.00,TxWx,2013-03-23 14:56:00,
2013-03-23 11:01:00,28.0,17.0,29.62,NW,315,7.0,10.0,67,0.00,,,0.00,TxWx,2013-03-23 15:01:00,
2013-03-23 11:06:00,28.0,17.0,29.62,WNW,292,8.0,13.0,67,0.00,,,0.00,TxWx,2013-03-23 15:06:00,
2013-03-23 11:11:00,29.0,18.0,29.62,WNW,292,9.0,12.0,66,0.00,,,0.00,TxWx,2013-03-23 15:11:00,
2013-03-23 11:16:00,28.0,17.0,29.62,SW,225,11.0,13.0,65,0.00,,,0.00,TxWx,2013-03-23 15:16:00,
2013-03-23 11:21:00,28.0,19.0,29.71,West,270,10.0,13.0,71,0.00,,,0.00,TxWx,2013-03-23 15:21:00,
2013-03-23 11:22:00,28.0,19.0,29.71,West,270,13.0,17.0,71,0.00,,,0.00,TxWx,2013-03-23 15:22:00,
2013-03-23 11:23:00,29.0,20.0,29.71,WSW,247,10.0,16.0,71,0.00,,,0.00,TxWx,2013-03-23 15:23:00,
2013-03-23 11:24:00,29.0,20.0,29.71,West,270,14.0,14.0,71,0.00,,,0.00,TxWx,2013-03-23 15:24:00,
2013-03-23 11:25:00,29.0,18.0,29.62,SSW,202,9.0,10.0,65,0.00,,,0.00,TxWx,2013-03-23 15:25:00,
2013-03-23 11:30:00,30.0,18.0,29.62,West,270,7.0,8.0,65,0.00,,,0.00,TxWx,2013-03-23 15:30:00,
2013-03-23 11:35:00,29.0,17.0,29.62,West,270,11.0,16.0,63,0.00,,,0.00,TxWx,2013-03-23 15:35:00,
2013-03-23 11:41:00,29.0,17.0,29.62,West,270,15.0,15.0,62,0.00,,,0.00,TxWx,2013-03-23 15:41:00,
2013-03-23 11:46:00,30.0,18.0,29.62,SW,225,10.0,14.0,64,0.00,,,0.00,TxWx,2013-03-23 15:46:00,
2013-03-23 11:51:00,29.0,18.0,29.63,WSW,247,12.0,14.0,65,0.00,,,0.00,TxWx,2013-03-23 15:51:00,
2013-03-23 11:56:00,29.0,18.0,29.62,SSW,202,12.0,15.0,66,0.00,,,0.00,TxWx,2013-03-23 15:56:00,
2013-03-23 12:01:00,29.0,18.0,29.62,West,270,11.0,12.0,66,0.00,,,0.00,TxWx,2013-03-23 16:01:00,
2013-03-23 12:06:00,29.0,18.0,29.62,West,270,7.0,8.0,66,0.00,,,0.00,TxWx,2013-03-23 16:06:00,
2013-03-23 12:11:00,29.0,18.0,29.62,WSW,247,16.0,16.0,66,0.00,,,0.00,TxWx,2013-03-23 16:11:00,
2013-03-23 12:16:00,29.0,18.0,29.62,WSW,247,18.0,19.0,66,0.00,,,0.00,TxWx,2013-03-23 16:16:00,
2013-03-23 12:21:00,29.0,18.0,29.62,West,270,10.0,14.0,66,0.00,,,0.00,TxWx,2013-03-23 16:21:00,
2013-03-23 12:26:00,30.0,18.0,29.62,WSW,247,13.0,17.0,64,0.00,,,0.00,TxWx,2013-03-23 16:26:00,
2013-03-23 12:35:00,30.0,18.0,29.62,WSW,247,15.0,21.0,63,0.00,,,0.00,TxWx,2013-03-23 16:35:00,
2013-03-23 12:40:00,30.0,18.0,29.62,SW,225,12.0,12.0,63,0.00,,,0.00,TxWx,2013-03-23 16:40:00,
2013-03-23 12:45:00,30.0,18.0,29.63,WSW,247,9.0,12.0,64,0.00,,,0.00,TxWx,2013-03-23 16:45:00,
2013-03-23 12:46:00,28.0,20.0,29.72,West,270,9.0,15.0,76,0.00,,,0.00,TxWx,2013-03-23 16:46:00,
2013-03-23 12:47:00,27.0,19.0,29.72,SW,225,23.0,24.0,76,0.00,,,0.00,TxWx,2013-03-23 16:47:00,
2013-03-23 12:48:00,28.0,20.0,29.72,SW,225,13.0,14.0,76,0.00,,,0.00,TxWx,2013-03-23 16:48:00,
2013-03-23 12:49:00,28.0,20.0,29.72,West,270,12.0,16.0,76,0.00,,,0.00,TxWx,2013-03-23 16:49:00,
2013-03-23 12:50:00,27.0,19.0,29.72,West,270,6.0,10.0,76,0.00,,,0.00,TxWx,2013-03-23 16:50:00,
2013-03-23 12:51:00,30.0,18.0,29.63,WSW,247,16.0,20.0,64,0.00,,,0.00,TxWx,2013-03-23 16:51:00,
2013-03-23 12:56:00,30.0,19.0,29.63,West,270,14.0,15.0,66,0.00,,,0.00,TxWx,2013-03-23 16:56:00,
2013-03-23 13:01:00,30.0,19.0,29.63,West,270,12.0,12.0,66,0.00,,,0.00,TxWx,2013-03-23 17:01:00,
2013-03-23 13:06:00,30.0,18.0,29.63,SW,225,27.0,31.0,65,0.00,,,0.00,TxWx,2013-03-23 17:06:00,
2013-03-23 13:11:00,31.0,20.0,29.63,SW,225,12.0,18.0,66,0.00,,,0.00,TxWx,2013-03-23 17:11:00,
2013-03-23 13:16:00,29.0,18.0,29.63,WNW,292,12.0,17.0,65,0.00,,,0.00,TxWx,2013-03-23 17:16:00,
2013-03-23 13:21:00,30.0,18.0,29.63,West,270,16.0,22.0,65,0.00,,,0.00,TxWx,2013-03-23 17:21:00,
2013-03-23 13:26:00,30.0,18.0,29.64,SW,225,18.0,21.0,65,0.00,,,0.00,TxWx,2013-03-23 17:26:00,
2013-03-23 13:31:00,30.0,19.0,29.63,SW,225,15.0,15.0,65,0.00,,,0.00,TxWx,2013-03-23 17:31:00,
2013-03-23 13:36:00,30.0,18.0,29.63,SW,225,14.0,24.0,65,0.00,,,0.00,TxWx,2013-03-23 17:36:00,
2013-03-23 13:42:00,30.0,18.0,29.63,West,270,18.0,18.0,65,0.00,,,0.00,TxWx,2013-03-23 17:42:00,
2013-03-23 13:48:00,30.0,18.0,29.63,SW,225,16.0,16.0,64,0.00,,,0.00,TxWx,2013-03-23 17:48:00,
2013-03-23 13:51:00,27.0,20.0,29.71,WSW,247,10.0,10.0,78,0.00,,,0.00,TxWx,2013-03-23 17:51:00,
2013-03-23 13:52:00,27.0,20.0,29.72,West,270,8.0,12.0,78,0.00,,,0.00,TxWx,2013-03-23 17:52:00,
2013-03-23 13:53:00,30.0,18.0,29.63,SW,225,12.0,18.0,64,0.00,,,0.00,TxWx,2013-03-23 17:53:00,
2013-03-23 13:54:00,27.0,20.0,29.71,West,270,8.0,11.0,78,0.00,,,0.00,TxWx,2013-03-23 17:54:00,
2013-03-23 13:55:00,27.0,20.0,29.71,WSW,247,6.0,8.0,78,0.00,,,0.00,TxWx,2013-03-23 17:55:00,
2013-03-23 13:58:00,31.0,19.0,29.63,West,270,14.0,14.0,63,0.00,,,0.00,TxWx,2013-03-23 17:58:00,
2013-03-23 13:59:00,27.0,20.0,29.71,West,270,14.0,14.0,78,0.00,,,0.00,TxWx,2013-03-23 17:59:00,
2013-03-23 14:00:00,27.0,20.0,29.71,WNW,292,14.0,16.0,78,0.00,,,0.00,TxWx,2013-03-23 18:00:00,
2013-03-23 14:01:00,27.0,20.0,29.71,WSW,247,16.0,16.0,78,0.00,,,0.00,TxWx,2013-03-23 18:01:00,
2013-03-23 14:02:00,27.0,20.0,29.71,WSW,247,5.0,7.0,78,0.00,,,0.00,TxWx,2013-03-23 18:02:00,
2013-03-23 14:03:00,27.0,20.0,29.71,West,270,8.0,10.0,78,0.00,,,0.00,TxWx,2013-03-23 18:03:00,
2013-03-23 14:04:00,27.0,20.0,29.71,NW,315,9.0,11.0,78,0.00,,,0.00,TxWx,2013-03-23 18:04:00,
2013-03-23 14:06:00,31.0,19.0,29.63,West,270,10.0,10.0,63,0.00,,,0.00,TxWx,2013-03-23 18:06:00,
2013-03-23 14:07:00,27.0,20.0,29.71,WNW,292,8.0,8.0,78,0.00,,,0.00,TxWx,2013-03-23 18:07:00,
2013-03-23 14:08:00,27.0,20.0,29.71,SW,225,5.0,10.0,78,0.00,,,0.00,TxWx,2013-03-23 18:08:00,
2013-03-23 14:09:00,27.0,20.0,29.71,WNW,292,8.0,8.0,78,0.00,,,0.00,TxWx,2013-03-23 18:09:00,
2013-03-23 14:10:00,27.0,20.0,29.71,West,270,6.0,10.0,78,0.00,,,0.00,TxWx,2013-03-23 18:10:00,
2013-03-23 14:11:00,31.0,19.0,29.63,SW,225,14.0,21.0,64,0.00,,,0.00,TxWx,2013-03-23 18:11:00,
2013-03-23 14:12:00,27.0,20.0,29.71,West,270,10.0,10.0,79,0.00,,,0.00,TxWx,2013-03-23 18:12:00,
2013-03-23 14:13:00,27.0,20.0,29.71,NW,315,8.0,8.0,79,0.00,,,0.00,TxWx,2013-03-23 18:13:00,
2013-03-23 14:14:00,27.0,20.0,29.71,West,270,15.0,15.0,79,0.00,,,0.00,TxWx,2013-03-23 18:14:00,
2013-03-23 14:16:00,30.0,18.0,29.63,WSW,247,8.0,10.0,64,0.00,,,0.00,TxWx,2013-03-23 18:16:00,
2013-03-23 14:17:00,27.0,20.0,29.71,WSW,247,10.0,14.0,79,0.00,,,0.00,TxWx,2013-03-23 18:17:00,
2013-03-23 14:18:00,27.0,20.0,29.71,WSW,247,10.0,10.0,79,0.00,,,0.00,TxWx,2013-03-23 18:18:00,
2013-03-23 14:21:00,30.0,18.0,29.63,WSW,247,13.0,14.0,64,0.00,,,0.00,TxWx,2013-03-23 18:21:00,
2013-03-23 14:26:00,30.0,18.0,29.63,West,270,13.0,13.0,64,0.00,,,0.00,TxWx,2013-03-23 18:26:00,
2013-03-23 14:31:00,27.0,20.0,29.71,West,270,11.0,11.0,78,0.00,,,0.00,TxWx,2013-03-23 18:31:00,
2013-03-23 14:32:00,27.0,20.0,29.71,West,270,5.0,8.0,78,0.00,,,0.00,TxWx,2013-03-23 18:32:00,
2013-03-23 14:33:00,27.0,20.0,29.71,WSW,247,6.0,7.0,79,0.00,,,0.00,TxWx,2013-03-23 18:33:00,
2013-03-23 14:34:00,26.0,19.0,29.71,West,270,11.0,12.0,79,0.00,,,0.00,TxWx,2013-03-23 18:34:00,
2013-03-23 14:35:00,30.0,18.0,29.63,SW,225,22.0,22.0,64,0.00,,,0.00,TxWx,2013-03-23 18:35:00,
2013-03-23 14:40:00,31.0,19.0,29.63,West,270,14.0,15.0,64,0.00,,,0.00,TxWx,2013-03-23 18:40:00,
2013-03-23 14:45:00,31.0,19.0,29.62,SW,225,22.0,25.0,64,0.00,,,0.00,TxWx,2013-03-23 18:45:00,
2013-03-23 14:50:00,30.0,18.0,29.63,West,270,13.0,18.0,63,0.00,,,0.00,TxWx,2013-03-23 18:50:00,
2013-03-23 14:55:00,31.0,19.0,29.62,West,270,16.0,19.0,63,0.00,,,0.00,TxWx,2013-03-23 18:55:00,
2013-03-23 15:00:00,31.0,19.0,29.62,West,270,13.0,13.0,64,0.00,,,0.00,TxWx,2013-03-23 19:00:00,
2013-03-23 15:05:00,31.0,19.0,29.62,West,270,10.0,19.0,63,0.00,,,0.00,TxWx,2013-03-23 19:05:00,
2013-03-23 15:11:00,32.0,19.0,29.62,West,270,19.0,19.0,61,0.00,,,0.00,TxWx,2013-03-23 19:11:00,
2013-03-23 15:12:00,26.0,20.0,29.71,WNW,292,6.0,14.0,80,0.00,,,0.00,TxWx,2013-03-23 19:12:00,
2013-03-23 15:13:00,27.0,20.0,29.71,West,270,8.0,10.0,80,0.00,,,0.00,TxWx,2013-03-23 19:13:00,
2013-03-23 15:14:00,27.0,21.0,29.71,West,270,6.0,8.0,80,0.00,,,0.00,TxWx,2013-03-23 19:14:00,
2013-03-23 15:15:00,26.0,20.0,29.71,West,270,11.0,12.0,80,0.00,,,0.00,TxWx,2013-03-23 19:15:00,
2013-03-23 15:16:00,32.0,18.0,29.62,SW,225,12.0,12.0,60,0.00,,,0.00,TxWx,2013-03-23 19:16:00,
2013-03-23 15:21:00,31.0,18.0,29.62,WSW,247,17.0,20.0,60,0.00,,,0.00,TxWx,2013-03-23 19:21:00,
2013-03-23 15:26:00,32.0,19.0,29.62,SSW,202,21.0,21.0,60,0.00,,,0.00,TxWx,2013-03-23 19:26:00,
2013-03-23 15:31:00,31.0,18.0,29.62,West,270,18.0,23.0,61,0.00,,,0.00,TxWx,2013-03-23 19:31:00,
2013-03-23 15:36:00,31.0,18.0,29.62,SW,225,24.0,27.0,61,0.00,,,0.00,TxWx,2013-03-23 19:36:00,
2013-03-23 15:41:00,31.0,18.0,29.62,WSW,247,13.0,24.0,62,0.00,,,0.00,TxWx,2013-03-23 19:41:00,
2013-03-23 15:46:00,31.0,18.0,29.62,West,270,11.0,19.0,61,0.00,,,0.00,TxWx,2013-03-23 19:46:00,
2013-03-23 15:51:00,31.0,18.0,29.62,WSW,247,10.0,17.0,61,0.00,,,0.00,TxWx,2013-03-23 19:51:00,
2013-03-23 15:56:00,31.0,18.0,29.62,West,270,16.0,26.0,61,0.00,,,0.00,TxWx,2013-03-23 19:56:00,
2013-03-23 16:01:00,31.0,18.0,29.62,SW,225,16.0,21.0,61,0.00,,,0.00,TxWx,2013-03-23 20:01:00,
2013-03-23 16:07:00,31.0,18.0,29.63,West,270,15.0,17.0,60,0.00,,,0.00,TxWx,2013-03-23 20:07:00,
2013-03-23 16:12:00,31.0,18.0,29.63,SW,225,18.0,18.0,60,0.00,,,0.00,TxWx,2013-03-23 20:12:00,
2013-03-23 16:17:00,31.0,18.0,29.63,West,270,9.0,14.0,60,0.00,,,0.00,TxWx,2013-03-23 20:17:00,
2013-03-23 16:22:00,31.0,18.0,29.63,WSW,247,7.0,14.0,61,0.00,,,0.00,TxWx,2013-03-23 20:22:00,
2013-03-23 16:27:00,32.0,18.0,29.63,SW,225,15.0,17.0,60,0.00,,,0.00,TxWx,2013-03-23 20:27:00,
2013-03-23 16:32:00,31.0,18.0,29.63,WNW,292,18.0,24.0,60,0.00,,,0.00,TxWx,2013-03-23 20:32:00,
2013-03-23 16:40:00,32.0,18.0,29.63,SW,225,23.0,25.0,60,0.00,,,0.00,TxWx,2013-03-23 20:40:00,
2013-03-23 16:45:00,31.0,18.0,29.63,West,270,12.0,21.0,60,0.00,,,0.00,TxWx,2013-03-23 20:45:00,
2013-03-23 16:50:00,31.0,17.0,29.63,West,270,22.0,24.0,59,0.00,,,0.00,TxWx,2013-03-23 20:50:00,
2013-03-23 16:55:00,32.0,18.0,29.63,West,270,14.0,23.0,59,0.00,,,0.00,TxWx,2013-03-23 20:55:00,
2013-03-23 17:00:00,32.0,18.0,29.63,West,270,8.0,13.0,59,0.00,,,0.00,TxWx,2013-03-23 21:00:00,
2013-03-23 17:05:00,32.0,18.0,29.64,SW,225,10.0,12.0,60,0.00,,,0.00,TxWx,2013-03-23 21:05:00,
2013-03-23 17:10:00,32.0,18.0,29.64,West,270,16.0,16.0,59,0.00,,,0.00,TxWx,2013-03-23 21:10:00,
2013-03-23 17:15:00,31.0,17.0,29.64,WSW,247,10.0,16.0,59,0.00,,,0.00,TxWx,2013-03-23 21:15:00,
2013-03-23 17:20:00,32.0,18.0,29.64,WNW,292,19.0,19.0,58,0.00,,,0.00,TxWx,2013-03-23 21:20:00,
2013-03-23 17:26:00,32.0,18.0,29.64,WSW,247,12.0,14.0,59,0.00,,,0.00,TxWx,2013-03-23 21:26:00,
2013-03-23 17:31:00,32.0,18.0,29.64,WNW,292,10.0,18.0,58,0.00,,,0.00,TxWx,2013-03-23 21:31:00,
2013-03-23 17:36:00,31.0,17.0,29.65,SSW,202,9.0,16.0,58,0.00,,,0.00,TxWx,2013-03-23 21:36:00,
2013-03-23 17:45:00,32.0,17.0,29.65,WSW,247,11.0,11.0,57,0.00,,,0.00,TxWx,2013-03-23 21:45:00,
2013-03-23 17:50:00,32.0,17.0,29.66,WSW,247,9.0,10.0,57,0.00,,,0.00,TxWx,2013-03-23 21:50:00,
2013-03-23 17:56:00,32.0,17.0,29.66,WNW,292,8.0,10.0,57,0.00,,,0.00,TxWx,2013-03-23 21:56:00,
2013-03-23 17:57:00,26.0,19.0,29.68,SW,225,8.0,10.0,79,0.00,,,0.00,TxWx,2013-03-23 21:57:00,
2013-03-23 17:58:00,26.0,19.0,29.69,WSW,247,4.0,8.0,79,0.00,,,0.00,TxWx,2013-03-23 21:58:00,
2013-03-23 17:59:00,26.0,19.0,29.68,WSW,247,6.0,10.0,79,0.00,,,0.00,TxWx,2013-03-23 21:59:00,
2013-03-23 18:01:00,32.0,16.0,29.66,West,270,17.0,18.0,55,0.00,,,0.00,TxWx,2013-03-23 22:01:00,
2013-03-23 18:10:00,31.0,16.0,29.66,SW,225,7.0,13.0,55,0.00,,,0.00,TxWx,2013-03-23 22:10:00,
2013-03-23 18:15:00,31.0,15.0,29.67,WNW,292,13.0,15.0,54,0.00,,,0.00,TxWx,2013-03-23 22:15:00,
2013-03-23 18:16:00,26.0,19.0,29.68,WSW,247,5.0,8.0,79,0.00,,,0.00,TxWx,2013-03-23 22:16:00,
2013-03-23 18:17:00,26.0,19.0,29.68,West,270,7.0,8.0,79,0.00,,,0.00,TxWx,2013-03-23 22:17:00,
2013-03-23 18:18:00,26.0,19.0,29.68,West,270,11.0,13.0,79,0.00,,,0.00,TxWx,2013-03-23 22:18:00,
2013-03-23 18:19:00,26.0,19.0,29.68,West,270,11.0,14.0,79,0.00,,,0.00,TxWx,2013-03-23 22:19:00,
2013-03-23 18:20:00,26.0,19.0,29.68,West,270,11.0,11.0,79,0.00,,,0.00,TxWx,2013-03-23 22:20:00,
2013-03-23 18:21:00,31.0,16.0,29.67,WSW,247,13.0,13.0,55,0.00,,,0.00,TxWx,2013-03-23 22:21:00,
2013-03-23 18:26:00,31.0,16.0,29.67,WSW,247,16.0,16.0,56,0.00,,,0.00,TxWx,2013-03-23 22:26:00,
2013-03-23 18:31:00,31.0,16.0,29.67,West,270,11.0,13.0,56,0.00,,,0.00,TxWx,2013-03-23 22:31:00,
2013-03-23 18:36:00,31.0,16.0,29.67,West,270,10.0,15.0,56,0.00,,,0.00,TxWx,2013-03-23 22:36:00,
2013-03-23 18:41:00,31.0,16.0,29.67,West,270,16.0,22.0,55,0.00,,,0.00,TxWx,2013-03-23 22:41:00,
2013-03-23 18:46:00,31.0,16.0,29.67,SW,225,16.0,18.0,55,0.00,,,0.00,TxWx,2013-03-23 22:46:00,
2013-03-23 18:51:00,31.0,16.0,29.67,NW,315,11.0,19.0,55,0.00,,,0.00,TxWx,2013-03-23 22:51:00,
2013-03-23 18:56:00,31.0,16.0,29.68,West,270,16.0,16.0,56,0.00,,,0.00,TxWx,2013-03-23 22:56:00,
2013-03-23 19:01:00,30.0,15.0,29.68,West,270,17.0,21.0,56,0.00,,,0.00,TxWx,2013-03-23 23:01:00,
2013-03-23 19:06:00,31.0,16.0,29.68,West,270,9.0,14.0,57,0.00,,,0.00,TxWx,2013-03-23 23:06:00,
2013-03-23 19:11:00,30.0,15.0,29.68,WSW,247,18.0,23.0,57,0.00,,,0.00,TxWx,2013-03-23 23:11:00,
2013-03-23 19:16:00,30.0,16.0,29.69,WSW,247,14.0,18.0,57,0.00,,,0.00,TxWx,2013-03-23 23:16:00,
2013-03-23 19:21:00,30.0,16.0,29.69,WSW,247,16.0,21.0,58,0.00,,,0.00,TxWx,2013-03-23 23:21:00,
2013-03-23 19:27:00,30.0,16.0,29.69,West,270,8.0,13.0,59,0.00,,,0.00,TxWx,2013-03-23 23:27:00,
2013-03-23 19:35:00,30.0,17.0,29.69,WSW,247,16.0,17.0,60,0.00,,,0.00,TxWx,2013-03-23 23:35:00,
2013-03-23 19:40:00,29.0,16.0,29.69,WSW,247,15.0,18.0,60,0.00,,,0.00,TxWx,2013-03-23 23:40:00,
2013-03-23 19:45:00,29.0,16.0,29.69,SW,225,10.0,19.0,61,0.00,,,0.00,TxWx,2013-03-23 23:45:00,
2013-03-23 19:50:00,30.0,17.0,29.69,WSW,247,12.0,14.0,61,0.00,,,0.00,TxWx,2013-03-23 23:50:00,
2013-03-23 19:55:00,30.0,17.0,29.69,WSW,247,11.0,15.0,61,0.00,,,0.00,TxWx,2013-03-23 23:55:00,
2013-03-23 20:01:00,29.0,16.0,29.70,West,270,15.0,19.0,60,0.00,,,0.00,TxWx,2013-03-24 00:01:00,
2013-03-23 20:06:00,30.0,17.0,29.69,WNW,292,13.0,13.0,60,0.00,,,0.00,TxWx,2013-03-24 00:06:00,
2013-03-23 20:11:00,29.0,16.0,29.69,NW,315,9.0,11.0,61,0.00,,,0.00,TxWx,2013-03-24 00:11:00,
2013-03-23 20:12:00,26.0,19.0,29.72,West,270,6.0,7.0,77,0.00,,,0.00,TxWx,2013-03-24 00:12:00,
2013-03-23 20:13:00,26.0,19.0,29.72,West,270,10.0,10.0,77,0.00,,,0.00,TxWx,2013-03-24 00:13:00,
2013-03-23 20:14:00,27.0,20.0,29.72,NW,315,7.0,10.0,77,0.00,,,0.00,TxWx,2013-03-24 00:14:00,
2013-03-23 20:15:00,27.0,20.0,29.72,WSW,247,5.0,8.0,77,0.00,,,0.00,TxWx,2013-03-24 00:15:00,
2013-03-23 20:16:00,30.0,17.0,29.70,West,270,16.0,16.0,61,0.00,,,0.00,TxWx,2013-03-24 00:16:00,
2013-03-23 20:21:00,30.0,17.0,29.70,West,270,12.0,13.0,62,0.00,,,0.00,TxWx,2013-03-24 00:21:00,
2013-03-23 20:26:00,29.0,17.0,29.70,WSW,247,7.0,8.0,62,0.00,,,0.00,TxWx,2013-03-24 00:26:00,
2013-03-23 20:31:00,30.0,18.0,29.70,WSW,247,11.0,11.0,62,0.00,,,0.00,TxWx,2013-03-24 00:31:00,
2013-03-23 20:36:00,29.0,17.0,29.70,West,270,11.0,11.0,63,0.00,,,0.00,TxWx,2013-03-24 00:36:00,
2013-03-23 20:41:00,30.0,18.0,29.70,West,270,11.0,14.0,63,0.00,,,0.00,TxWx,2013-03-24 00:41:00,
2013-03-23 20:46:00,29.0,17.0,29.71,West,270,9.0,9.0,64,0.00,,,0.00,TxWx,2013-03-24 00:46:00,
2013-03-23 20:52:00,29.0,18.0,29.71,SW,225,15.0,15.0,65,0.00,,,0.00,TxWx,2013-03-24 00:52:00,
2013-03-23 20:57:00,29.0,18.0,29.71,WSW,247,8.0,12.0,66,0.00,,,0.00,TxWx,2013-03-24 00:57:00,
2013-03-23 21:02:00,28.0,17.0,29.70,SW,225,9.0,15.0,67,0.00,,,0.00,TxWx,2013-03-24 01:02:00,
2013-03-23 21:07:00,28.0,18.0,29.70,WSW,247,12.0,12.0,68,0.00,,,0.00,TxWx,2013-03-24 01:07:00,
2013-03-23 21:12:00,28.0,18.0,29.71,SW,225,12.0,13.0,69,0.00,,,0.00,TxWx,2013-03-24 01:12:00,
2013-03-23 21:17:00,28.0,18.0,29.71,West,270,8.0,10.0,70,0.00,,,0.00,TxWx,2013-03-24 01:17:00,
2013-03-23 21:25:00,29.0,20.0,29.71,WSW,247,8.0,10.0,71,0.00,,,0.00,TxWx,2013-03-24 01:25:00,
2013-03-23 21:30:00,28.0,19.0,29.71,SW,225,11.0,17.0,72,0.00,,,0.00,TxWx,2013-03-24 01:30:00,
2013-03-23 21:31:00,27.0,19.0,29.73,West,270,6.0,7.0,76,0.00,,,0.00,TxWx,2013-03-24 01:31:00,
2013-03-23 21:32:00,26.0,18.0,29.72,West,270,6.0,8.0,76,0.00,,,0.00,TxWx,2013-03-24 01:32:00,
2013-03-23 21:33:00,27.0,19.0,29.72,WNW,292,6.0,7.0,76,0.00,,,0.00,TxWx,2013-03-24 01:33:00,
2013-03-23 21:34:00,26.0,18.0,29.72,West,270,8.0,10.0,75,0.00,,,0.00,TxWx,2013-03-24 01:34:00,
2013-03-23 21:35:00,28.0,19.0,29.71,West,270,11.0,11.0,72,0.00,,,0.00,TxWx,2013-03-24 01:35:00,
2013-03-23 21:40:00,29.0,20.0,29.71,West,270,10.0,10.0,73,0.00,,,0.00,TxWx,2013-03-24 01:40:00,
2013-03-23 21:45:00,28.0,19.0,29.72,WSW,247,15.0,15.0,73,0.00,,,0.00,TxWx,2013-03-24 01:45:00,
2013-03-23 21:50:00,29.0,20.0,29.71,WSW,247,8.0,13.0,73,0.00,,,0.00,TxWx,2013-03-24 01:50:00,
2013-03-23 21:56:00,28.0,20.0,29.71,WNW,292,12.0,12.0,74,0.00,,,0.00,TxWx,2013-03-24 01:56:00,
2013-03-23 22:01:00,28.0,20.0,29.72,WSW,247,11.0,13.0,74,0.00,,,0.00,TxWx,2013-03-24 02:01:00,
2013-03-23 22:06:00,27.0,19.0,29.72,West,270,16.0,16.0,74,0.00,,,0.00,TxWx,2013-03-24 02:06:00,
2013-03-23 22:11:00,28.0,20.0,29.71,WSW,247,15.0,15.0,75,0.00,,,0.00,TxWx,2013-03-24 02:11:00,
2013-03-23 22:16:00,28.0,20.0,29.72,WSW,247,10.0,12.0,75,0.00,,,0.00,TxWx,2013-03-24 02:16:00,
2013-03-23 22:21:00,28.0,20.0,29.71,WSW,247,12.0,12.0,75,0.00,,,0.00,TxWx,2013-03-24 02:21:00,
2013-03-23 22:26:00,27.0,19.0,29.71,West,270,10.0,12.0,75,0.00,,,0.00,TxWx,2013-03-24 02:26:00,
2013-03-23 22:31:00,27.0,19.0,29.71,WSW,247,14.0,16.0,76,0.00,,,0.00,TxWx,2013-03-24 02:31:00,
2013-03-23 22:36:00,27.0,19.0,29.72,WSW,247,11.0,14.0,76,0.00,,,0.00,TxWx,2013-03-24 02:36:00,
2013-03-23 22:41:00,27.0,19.0,29.72,SW,225,14.0,15.0,76,0.00,,,0.00,TxWx,2013-03-24 02:41:00,
2013-03-23 22:50:00,27.0,19.0,29.72,WSW,247,8.0,9.0,76,0.00,,,0.00,TxWx,2013-03-24 02:50:00,
2013-03-23 22:56:00,27.0,19.0,29.72,WSW,247,9.0,14.0,76,0.00,,,0.00,TxWx,2013-03-24 02:56:00,
2013-03-23 23:01:00,27.0,19.0,29.72,WNW,292,14.0,16.0,76,0.00,,,0.00,TxWx,2013-03-24 03:01:00,
2013-03-23 23:06:00,27.0,19.0,29.72,WNW,292,21.0,21.0,76,0.00,,,0.00,TxWx,2013-03-24 03:06:00,
2013-03-23 23:11:00,27.0,19.0,29.72,West,270,11.0,13.0,76,0.00,,,0.00,TxWx,2013-03-24 03:11:00,
2013-03-23 23:16:00,27.0,20.0,29.72,West,270,13.0,14.0,77,0.00,,,0.00,TxWx,2013-03-24 03:16:00,
2013-03-23 23:21:00,27.0,20.0,29.72,West,270,17.0,17.0,77,0.00,,,0.00,TxWx,2013-03-24 03:21:00,
2013-03-23 23:22:00,29.0,20.0,29.73,NW,315,7.0,9.0,72,0.00,,,0.00,TxWx,2013-03-24 03:22:00,
2013-03-23 23:23:00,29.0,20.0,29.73,West,270,7.0,7.0,72,0.00,,,0.00,TxWx,2013-03-24 03:23:00,
2013-03-23 23:24:00,29.0,20.0,29.73,West,270,8.0,11.0,71,0.00,,,0.00,TxWx,2013-03-24 03:24:00,
2013-03-23 23:25:00,29.0,20.0,29.73,West,270,8.0,8.0,71,0.00,,,0.00,TxWx,2013-03-24 03:25:00,
2013-03-23 23:26:00,27.0,20.0,29.71,SW,225,11.0,16.0,77,0.00,,,0.00,TxWx,2013-03-24 03:26:00,
2013-03-23 23:31:00,27.0,20.0,29.72,West,270,10.0,11.0,77,0.00,,,0.00,TxWx,2013-03-24 03:31:00,
2013-03-23 23:36:00,27.0,20.0,29.72,WSW,247,8.0,13.0,77,0.00,,,0.00,TxWx,2013-03-24 03:36:00,
2013-03-23 23:41:00,27.0,20.0,29.72,West,270,6.0,8.0,78,0.00,,,0.00,TxWx,2013-03-24 03:41:00,
2013-03-23 23:46:00,28.0,21.0,29.72,WSW,247,14.0,14.0,78,0.00,,,0.00,TxWx,2013-03-24 03:46:00,
2013-03-23 23:55:00,28.0,20.0,29.71,West,270,10.0,10.0,78,0.00,,,0.00,TxWx,2013-03-24 03:55:00,